Weather Roundup
Issued by NWS Chicago, IL

Home | Current Version | Previous Version | Graphics & Text | Print | Product List | Glossary On
Versions: 1 2 3 4 5 6 7 8 9 10 11 12 13 14 15 16 17 18 19 20 21 22 23 24 25 26 27 28 29 30 31 32 33 34 35 36 37 38 39 40 41 42 43 44 45 46 47 48 49 50
000
NZUS59 KLOT 181508
HRRLOT

CHICAGO AREA WEATHER ROUNDUP
NATIONAL WEATHER SERVICE CHICAGO/ROMEOVILLE IL
1000 AM CDT FRI AUG 18 2017

NOTE: "FAIR" INDICATES FEW OR NO CLOUDS BELOW 12,000 FEET WITH NO
SIGNIFICANT WEATHER AND/OR OBSTRUCTIONS TO VISIBILITY.

* THESE STATIONS ARE NOT UNDER NWS QUALITY CONTROL. THEY ALSO MAY NOT
  REPORT WEATHER SUCH AS PRECIPITATION OR FOG.

ILZ005-006-012>014-019>023-181600-
NORTHEAST ILLINOIS

CITY           SKY/WX    TMP DP  RH WIND       PRES   REMARKS
OHARE          PTSUNNY   72  61  68 NW14G22   29.87R
MIDWAY         PTSUNNY   73  62  68 W10       29.87R
AURORA         PTSUNNY   72  64  76 NW14      29.90R
LANSING*       CLOUDY    72  61  67 W9        29.89R
JOLIET*        CLOUDY    74  65  73 W8        29.89S
WAUKEGAN       CLOUDY    68  62  81 NW8       29.85R
DUPAGE AIRPORT CLOUDY    70  63  78 NW12G20   29.88R
WHEELING       CLOUDY    70  62  76 W13       29.88R
MORRIS*        PTSUNNY   72  64  77 NW9       29.90R
LEWIS AIRPORT* CLOUDY    71  62  71 NW10      29.89S
NORTHERLY ISL    N/A     71  60  68 W9          N/A
$$

WIZ051-052-058>065-066-070>072-181600-
SOUTHEAST WISCONSIN

CITY           SKY/WX    TMP DP  RH WIND       PRES   REMARKS
MILWAUKEE      CLOUDY    69  59  70 NW10      29.83R
KENOSHA*       CLOUDY    69  59  70 NW10      29.85R
RACINE*        CLOUDY    69  60  73 W13       29.86R
WAUKESHA       CLOUDY    64  57  77 W12G17    29.85S
WEST BEND      CLOUDY    64  59  82 W9        29.83R
$$

INZ001>003-010>013-019-020-181600-
NORTHWEST INDIANA

CITY           SKY/WX    TMP DP  RH WIND       PRES   REMARKS
GARY*          CLOUDY    73  63  68 W14       29.88R
MICHIGAN CITY* NOT AVBL
RENSSELAER*    NOT AVBL
VALPARAISO     PTSUNNY   75  64  68 NW9       29.88R
$$

LMZ740>746-181600-
SOUTHERN LAKE MICHIGAN

STATION/POSITION TIME  SKY/WX   TEMP WIND        PRES    VSBY
                                AIR  DIR/SP/G
                 (UTC)          (F)  (DEG/KT/KT) (MB)    (MI)
HARRISON CRIB    1440            71  300/ 16/ 17   N/A
BURNHAM HARBOR   NOT AVBL
CALUMET HARBOR   1442            71  240/  6/ 11 1011.1R
BURNS HARBOR     1440            70  280/ 12/ 14 1011.9R
MICHIGAN CITY    1440            70  280/ 17/ 19   N/A
$$

ABBREVIATIONS USED IN REMARKS
   TC - TEMPERATURE IN CELSIUS
  WCI - WIND CHILL INDEX
   HX - HEAT INDEX
  VSB - VISIBILITY
$$




USA.gov is the U.S. government's official web portal to all federal, state and local government web resources and services.